Regional Weather Roundup
Issued by NWS

Home | Current Version | Previous Version | Text Only | Print | Product List | Glossary Off
Versions: 1 2 3 4 5 6 7 8 9 10 11 12 13 14 15 16 17 18 19 20 21 22 23 24 25 26 27 28 29 30 31 32 33 34 35 36 37 38 39 40 41 42 43 44 45 46 47 48

000
ASUS45 KCYS 052010
RWRWY

WYOMING REGIONAL WEATHER ROUNDUP
NATIONAL WEATHER SERVICE CHEYENNE WY
100 PM MST FRI FEB 05 2016

NOTE:  "FAIR" INDICATES FEW OR NO CLOUDS BELOW 12,000 FEET
WITH NO SIGNIFICANT WEATHER AND/OR OBSTRUCTIONS TO VISIBILITY.

WYZ001-052100-
YELLOWSTONE NATIONAL PARK

CITY           SKY/WX    TMP DP  RH WIND       PRES   REMARKS
LK YELLOWSTONE   N/A     23  13  65 VRB6      30.35F WCI  16
W YELLOWSTONE  NOT AVBL

$$
WYZ002>013-054>058-071-098>099-052100-
NORTHERN WYOMING

CITY           SKY/WX    TMP DP  RH WIND       PRES   REMARKS
JACKSON        SUNNY     21  16  79 CALM      30.42F
CODY           FAIR      43  12  28 W9G24     30.21F
GREYBULL       FAIR      35  13  40 S8        30.28F WCI  29
WORLAND        FAIR      32  15  49 CALM      30.28F
SHERIDAN       MOSUNNY   41  14  33 S5        30.20F
BUFFALO        FAIR      34  15  46 S15       30.21F WCI  24
GILLETTE       FAIR      34  20  56 W10       30.22F WCI  26
HULETT         FAIR      36  21  55 W10       30.21F WCI  28
NEWCASTLE      FAIR      36  19  51 NW10G17   30.24S WCI  28

$$
WYZ014>020-022>026-101>103-052100-
CENTRAL WYOMING

CITY           SKY/WX    TMP DP  RH WIND       PRES   REMARKS
BIG PINEY      FAIR      28  14  55 W6G23     30.36F WCI  22
PINEDALE       FAIR      27  14  59 W22       30.34F WCI  12
DUBOIS         FAIR      32  12  43 W23G31    30.26S WCI  19
LANDER         FAIR      32  10  40 SW5       30.25F WCI  27
RIVERTON       FAIR      24  11  57 E5        30.27F WCI  18
CASPER         FAIR      22  12  65 SW24      30.28F WCI   5
DOUGLAS        FAIR      30  16  56 NW14      30.28F WCI  19

$$
WYZ021-027>030-104>119-052100-
SOUTHERN WYOMING

CITY           SKY/WX    TMP DP  RH WIND       PRES   REMARKS
EVANSTON       CLOUDY    26  18  71 SW13      30.44F WCI  15
FORT BRIDGER   CLOUDY    28  21  74 W18G25    30.46S WCI  16
ROCK SPRINGS   FAIR      25  16  68 W31G37    30.36F WCI   8
DIXON          CLOUDY    24  14  67 SW9       30.45F WCI  14
RAWLINS        PTSUNNY   20  12  71 W9G18     30.31F WCI   9
SARATOGA       FAIR      23  14  68 W13       30.35F WCI  11
LARAMIE        FAIR      25  11  55 W13       30.23F WCI  14
CHEYENNE       FAIR      29  10  45 NW16G28   30.23F WCI  17
TORRINGTON     FAIR      33  17  51 W17G26    30.27F WCI  22
PINE BLUFFS    FAIR      30  18  59 NW22G29   30.26F WCI  17

$$



USA.gov is the U.S. government's official web portal to all federal, state and local government web resources and services.